Regional Weather Roundup
Issued by NWS

Home | Current Version | Previous Version | Graphics & Text | Print | Product List | Glossary On
Versions: 1 2 3 4 5 6 7 8 9 10 11 12 13 14 15 16 17 18 19 20 21 22 23 24 25 26 27 28 29 30 31 32 33 34 35 36 37 38 39 40 41 42 43 44 45 46 47 48 49 50
000
ASUS45 KABQ 281501
RWRNM
WEATHER ROUNDUP FOR NEW MEXICO
NATIONAL WEATHER SERVICE ALBUQUERQUE NM
800 AM MST FRI NOV 28 2014

NOTE: "FAIR" MEANS FEW OR NO CLOUDS BELOW 12,000 FEET AGL WITH NO
       SIGNIFICANT WEATHER OR OBSTRUCTIONS TO VISION.

      THIS PRODUCT IS RELEASED AS TWO VERSIONS.  ONE VERSION NEAR
      THE TOP OF THE HOUR CONTAINING PRELIMINARY DATA FROM ALBUQUERQUE
      AND OTHER STATIONS.  A FINAL VERSION WITH ADDITIONAL DATA IS
      ISSUED ABOUT 10 MINUTES AFTER THE HOUR.

NMZ501-503-504-510>518-281600-
NORTHWEST PLATEAU/NORTHCENTRAL MOUNTAINS

CITY           SKY/WX    TMP DP  RH WIND       PRES   REMARKS
FARMINGTON     CLEAR     29  20  69 E9        30.27S WCI  20
SANTA FE       MOSUNNY   32  20  61 N14       30.29S WCI  22
TAOS           MOSUNNY   19  16  86 N5        30.32S WCI  13

$$
NMZ402-403-502-505>509-281600-
WESTCENTRAL MOUNTAINS/SOUTHWEST MOUNTAINS

CITY           SKY/WX    TMP DP  RH WIND       PRES   REMARKS
GALLUP         MOCLDY    21   8  57 CALM      30.30F
SILVER CITY    SUNNY     41  18  38 N8        30.30R

$$
NMZ407-409-411-412-281600-
SOUTHERN DESERTS

CITY           SKY/WX    TMP DP  RH WIND       PRES   REMARKS
DEMING         SUNNY     36  20  52 CALM      30.26R
ALAMOGORDO     MOSUNNY   41  25  52 SW3       30.27S
T OR C         SUNNY     40  19  43 N3        30.27R

$$
NMZ519>523-281600-
CENTRAL VALLEYS/CENTRAL HIGHLANDS

CITY           SKY/WX    TMP DP  RH WIND       PRES   REMARKS
ALBUQUERQUE    MOSUNNY   36  19  50 N9        30.29R WCI  29
DOUBLE EAGLE   MOSUNNY   32  18  55 CALM      30.29S
CLINES CORNERS PTSUNNY   37  18  46 NW15      30.25S WCI  28
BELEN          FAIR      31  16  53 NW5       30.30R WCI  26
SOCORRO        NOT AVBL

$$
NMZ524>526-539-540-281600-
SOUTHCENTRAL MOUNTAINS

CITY           SKY/WX    TMP DP  RH WIND       PRES   REMARKS
RUIDOSO        SUNNY     46  10  23 W8        30.31S

$$
NMZ527>531-281600-
NORTHEAST HIGHLANDS/NORTHEAST PLAINS

CITY           SKY/WX    TMP DP  RH WIND       PRES   REMARKS
LAS VEGAS      PTSUNNY   48   7  18 S13       30.21F
RATON          CLOUDY    32  20  61 NE7       30.15F WCI  26
CLAYTON        CLOUDY    57  11  16 W21G26    30.05F

$$
NMZ532>537-281600-
EASTCENTRAL PLAINS

CITY           SKY/WX    TMP DP  RH WIND       PRES   REMARKS
TUCUMCARI      PTSUNNY   51  23  33 W7        30.07F
CANNON AFB     MOSUNNY   45  25  45 W16       30.13S
CLOVIS AIRPORT MOSUNNY   46  27  46 W13       30.12S

$$
NMZ028-029-538-281600-
SOUTHEAST PLAINS

CITY           SKY/WX    TMP DP  RH WIND       PRES   REMARKS
ROSWELL        MOSUNNY   38  28  67 CALM      30.18S
CARLSBAD       MOSUNNY   40  30  67 N3        30.18R
HOBBS          SUNNY     39  32  75 S7        30.19R WCI  34


$$


USA.gov is the U.S. government's official web portal to all federal, state and local government web resources and services.